Showing default

LEMUR-2 DELOITTE-2, 68491

Orbit data source: Space-Track

LEMUR-2 DELOITTE-2, 68491 is an American payload satellite in SSO that was launched on Mon, 30 Mar 2026 UTC via an FALCON 9 launch vehicle from the Air Force Western Test Range (AFWTR). Payload-class satellites include a variety of spacecraft equipped with specific instruments for various scientific and technological missions. These include communications satellites like Starlink; space stations such as the ISS; scientific satellites like the Hubble; Earth observation satellites from companies like Planet Labs, Umbra, and HawkEye 360; GPS; miniature CubeSats for education and research; and military/defense satellites.

Loading next visibility...
Identifier
68491, 2026-067CD
Orbit
SSO
Country
Flag of USUS
Related business
Manufacturer
Spire/Glasgow
Mission
Operational spacecraft
Bus & Motor
CUBESAT 6U, Unknown motor
Mass
10 kg wet, 10 kg dry
Launch date (UTC)
2026-03-30 (3 months ago)
Launch vehicle
FALCON 9
Launch site
Air Force Western Test Range (AFWTR)
Object type
Payload
Rocket body
Debris
Shape & HBR
Unknown shape, 0.3 m
Radar Cross Section
Medium (>0.1 m² and <1 m²)

Expand to show TLE details & history
Last TLE update: 2 days ago

TLE from 2 days ago
0 LEMUR-2 DELOITTE-2
1 68491U 26067CD  26171.42878380  .00005420  00000-0  54666-3 0  9997
2 68491  97.7562 129.5381 0004525  60.7715 299.3955 14.91508220 12206
Epoch: 2026-06-20T10:17Z
TLE epoch observation values (Epoch: 2026-06-20T10:17:26.920Z)
Latitude
-0.00008°
Longitude
66.5324°
Altitude
594.726 km
Speed
7.563 km/s
True Right ascension
08h 38m 09s
True Declination
0° 00' 00"
Sunlit
Object was in daylight at epoch
Visualization orbit readout
Latitude
Unknown
Longitude
Unknown
Altitude
Unknown
Speed
Unknown
Apparent Right ascension
Unknown
Apparent Declination
Unknown
Sunlit
N/A
Visualization observer readout
Local Sidereal Time
12:36:56
Azimuth
Unknown
Elevation
Unknown
Doppler factor
Unknown
Orbital elements
Apogee altitude
593.404 km
Perigee altitude
587.098 km
Semi-major axis
6,968.388 km
Eccentricity
0.00045
Inclination
97.7562°
RAAN
129.5381°
Arg. of periapsis
60.7715°
True anomaly
299.35031°
Mean anomaly
299.3955°
Eccentric anomaly
299.37291°
Mean motion
3.73117 °/min
Orbital period
96.48 mins
BSTAR
0.00054666
Loading maneuver chart data...
Computing Atmospheric mass density...
Loading historical data...
Loading historical data...
Loading historical data...
Loading historical data...
Loading historical data...
Loading historical data...
Loading historical data...

Documentation

Showing up to 5 results
|